Location: Cazavet
(43.0017°N, 1.0431°E)
Time: 22:39:28
(UTC+00:00)

BREEZE-M DEB (TANK) - Pass Details

Date: 18 January 2026
Orbit: 359 x 16120 km, 49.4° (Epoch: 11 February)

Event Time Altitude Azimuth Distance (km) Brightness Sun altitude
Exits shadow 04:24:24 62° 323° (NW) 1,616 4.3 -32.2°
Maximum altitude 04:25:16 65° 354° (N) 1,728 4.6 -32.1°
Drops below altitude 10° 04:49:59 10° 77° (ENE) 9,993 9.6 -27.6°
Sets 05:07:12 0° 82° (E) 14,372 10.8 -24.4°
